Pocatello

United States     42˚52′23″N   112˚27′00″W
temp.,
°C
wind,
m/s
gust,
m/s
humid.,
%
clouds,
%
prec.,
mm/h
press.,
hPa
HPBL,
m
29 november, sun
sun2923:00−5˚nne118549 0.0 103421
02:00−6˚nne01850 0.0 103621
05:00−7˚nne11870 0.0 103721
08:00−7˚e11830 0.0 103921
11:00ene11490 0.0 1035274
14:00+3˚ne22370 0.0 1032396
17:00−2˚e12520 0.0 103321
20:00−3˚se22490 0.0 103421
30 november, mon
mon3023:00−4˚se33500 0.0 103427
02:00−4˚se44530 0.0 103347
05:00−5˚se44590 0.0 103366
08:00−5˚sse56644 0.0 1032104
11:00+2˚s585110 0.0 1028460
14:00+4˚s694614 0.0 1023532
17:00s6116214 0.0 1023224
20:00ssw4116067 0.1 1025703
1 december, tue
tue123:00−2˚wsw7158476 0.5 1027551
02:00−5˚wsw414910 0.0 1030490
05:00−5˚sw149033 0.0 1032223
08:00−5˚sw2583100 0.0 1034445
11:00−2˚w356582 0.0 1034693
14:00−1˚wnw44557 0.0 1032760
17:00−4˚wnw22733 0.0 103421
20:00−6˚wnw11800 0.0 103621
2 december, wed
wed223:00−7˚wnw11850 0.0 103821
02:00−8˚wnw11870 0.0 103721
05:00−8˚nnw00870 0.0 103821
08:00−8˚e11850 0.0 103921
11:00−4˚n34650 0.0 1039398
14:00−2˚n32490 0.0 1036429
17:00−6˚ene12620 0.0 103721
20:00−6˚se33490 0.0 103828
3 december, thu
thu323:00−7˚se33470 0.0 103924
02:00−8˚se33520 0.0 103925
05:00−8˚se33490 0.0 103825
08:00−8˚se33470 0.0 103836
11:00−2˚sse34320 0.0 1035292
14:00+2˚sse23280 0.0 1032530
17:00−3˚sse22440 0.0 103321
20:00−4˚sse23510 0.0 103423